Location: Artiguedieu
(43.5000°N, 0.5454°E)
Time: 20:32:56
(UTC+00:00)

Explorer 7 - Pass Details

Date: 10 August 2021
Orbit: 484 x 676 km, 50.3° (Epoch: 18 September)

Event Time Altitude Azimuth Distance (km) Brightness Sun altitude
Rises 04:12:15 0° 284° (WNW) 2,547 - -8.1°
Exits shadow 04:12:45 - 286° (WNW) 2,353 9.6 -8.1°
Reaches altitude 10° 04:14:36 10° 296° (WNW) 1,675 9.0 -7.8°
Maximum altitude 04:17:56 29° 358° (N) 941 8.3 -7.2°
Drops below altitude 10° 04:21:21 10° 60° (ENE) 1,725 11.2 -6.7°
Sets 04:23:49 0° 72° (ENE) 2,640 12.5 -6.3°
